Zurück zum Katalog

FREGAT DEB

LostHEO
NORAD 45895·DEBRIS·🇷🇺 Russia

Gestartet Jul 18, 2011 von Baikonur Cosmodrome

Loading…

Nächste Überflüge (nächste 24 Stunden)

TLE

VeraltetSource: Space-Track

Epoche: Aug 25, 2020, 10:31 UTC

1 45895U 11037DQ  20238.43834888  .00027598  00000-0  34133-1 0  9990
2 45895  51.4483 263.2106 2715420 118.3273 271.7473  9.27229423  4368

Verfolge FREGAT DEB in Echtzeit mit AllMySat

Download on the App Store